When you browse on this site, cookies collect data to enhance your experience and personalize the content and advertising you see.
Visit our Privacy Policy to learn more. By continuing to use the site, you agree to this use of cookies and data.
  • In France
  • List of Countries
  • For 7 days
  • Water Temperature
  • Satellite Maps
  • Weather Map
  • Weather Widgets
  • user-avatar
    Login

    Hourly Weather Horoda

    Today, 10 December, Monday

    Time Temperature Precipitation Wind Pressure Humidity
    00:00 -7°C° 0 mm 2 mps 582 mmHg 72%
    01:00 -7°C° 0 mm 2 mps 582 mmHg 72%
    02:00 -7°C° 0 mm 2 mps 581 mmHg 71%
    03:00 -7°C° 0 mm 2 mps 581 mmHg 71%
    04:00 -7°C° 0 mm 2 mps 581 mmHg 69%
    05:00 -7°C° 0 mm 2 mps 581 mmHg 68%
    06:00 -7°C° 0 mm 2 mps 581 mmHg 67%
    07:00 -6°C° 0 mm 2 mps 581 mmHg 64%
    08:00 -5°C° 0 mm 2 mps 582 mmHg 61%
    09:00 -4°C° 0 mm 2 mps 582 mmHg 58%
    10:00 -3°C° 0 mm 2 mps 582 mmHg 56%
    11:00 -1°C° 0 mm 2 mps 582 mmHg 54%
    12:00 +1°C° 0 mm 2 mps 583 mmHg 53%
    13:00 +1°C° 0 mm 2 mps 582 mmHg 55%
    14:00 -1°C° 0 mm 2 mps 582 mmHg 58%
    15:00 -1°C° 0 mm 2 mps 582 mmHg 60%
    16:00 -3°C° 0 mm 2 mps 581 mmHg 60%
    17:00 -4°C° 0 mm 2 mps 581 mmHg 60%
    18:00 -6°C° 0 mm 3 mps 580 mmHg 60%
    19:00 -6°C° 0 mm 3 mps 580 mmHg 60%
    20:00 -6°C° 0 mm 3 mps 580 mmHg 61%
    21:00 -6°C° 0 mm 3 mps 580 mmHg 61%
    22:00 -6°C° 0 mm 3 mps 580 mmHg 62%
    23:00 -6°C° 0 mm 3 mps 580 mmHg 64%

    Tomorrow, 11 December, Tuesday

    Time Temperature Precipitation Wind Pressure Humidity
    00:00 -6°C° 0 mm 3 mps 580 mmHg 65%
    01:00 -6°C° 0 mm 3 mps 580 mmHg 64%
    02:00 -6°C° 0 mm 3 mps 580 mmHg 62%
    03:00 -6°C° 0 mm 3 mps 580 mmHg 61%
    04:00 -6°C° 0 mm 3 mps 580 mmHg 60%
    05:00 -6°C° 0 mm 3 mps 580 mmHg 59%
    06:00 -6°C° 0 mm 3 mps 580 mmHg 59%
    07:00 -5°C° 0 mm 3 mps 580 mmHg 58%
    08:00 -4°C° 0 mm 3 mps 581 mmHg 57%
    09:00 -2°C° 0 mm 3 mps 581 mmHg 56%
    10:00 0°C° 0 mm 3 mps 581 mmHg 56%
    11:00 +1°C° 0 mm 3 mps 582 mmHg 56%
    12:00 +2°C° 0 mm 3 mps 582 mmHg 56%
    13:00 +1°C° 0 mm 4 mps 581 mmHg 59%
    14:00 0°C° 0 mm 4 mps 581 mmHg 62%
    15:00 -1°C° 0 mm 4 mps 580 mmHg 64%
    16:00 -2°C° 0 mm 4 mps 580 mmHg 67%
    17:00 -3°C° 0 mm 4 mps 579 mmHg 70%
    18:00 -4°C° 0 mm 4 mps 578 mmHg 72%
    19:00 -4°C° 0 mm 4 mps 578 mmHg 73%
    20:00 -3°C° 0 mm 4 mps 578 mmHg 73%
    21:00 -3°C° 0 mm 4 mps 578 mmHg 73%
    22:00 -4°C° 0 mm 4 mps 578 mmHg 73%
    23:00 -4°C° 0 mm 4 mps 577 mmHg 73%

    Day after tomorrow, 12 December, Wednesday

    Time Temperature Precipitation Wind Pressure Humidity
    00:00 -4°C° 0 mm 4 mps 577 mmHg 73%
    01:00 -4°C° 0.1 mm 4 mps 578 mmHg 74%
    02:00 -4°C° 0.1 mm 4 mps 578 mmHg 76%
    03:00 -4°C° 0.1 mm 4 mps 579 mmHg 77%
    04:00 -5°C° 0.1 mm 3 mps 579 mmHg 79%
    05:00 -5°C° 0.1 mm 3 mps 579 mmHg 80%
    06:00 -5°C° 0.1 mm 3 mps 580 mmHg 81%
    07:00 -4°C° 0 mm 2 mps 580 mmHg 79%
    08:00 -4°C° 0 mm 2 mps 581 mmHg 77%
    09:00 -4°C° 0 mm 2 mps 582 mmHg 76%
    10:00 -3°C° 0 mm 2 mps 582 mmHg 72%
    11:00 -2°C° 0 mm 2 mps 582 mmHg 69%
    12:00 -2°C° 0 mm 2 mps 582 mmHg 65%
    13:00 -2°C° 0.1 mm 2 mps 582 mmHg 66%
    14:00 0°C° 0.1 mm 1 mps 582 mmHg 67%
    15:00 -1°C° 0.1 mm 1 mps 582 mmHg 68%
    16:00 -4°C° 0.1 mm 2 mps 581 mmHg 70%
    17:00 -4°C° 0.1 mm 2 mps 581 mmHg 71%
    18:00 -5°C° 0.1 mm 2 mps 580 mmHg 73%
    19:00 -5°C° 0.4 mm 2 mps 580 mmHg 76%
    20:00 -5°C° 0.4 mm 2 mps 580 mmHg 79%
    21:00 -5°C° 0.4 mm 2 mps 580 mmHg 82%
    22:00 -5°C° 0.8 mm 2 mps 580 mmHg 84%
    23:00 -5°C° 0.8 mm 2 mps 580 mmHg 86%

    13 December, Thursday

    Time Temperature Precipitation Wind Pressure Humidity
    00:00 -6°C° 0.8 mm 3 mps 580 mmHg 87%
    01:00 -6°C° 0.5 mm 3 mps 580 mmHg 87%
    02:00 -6°C° 0.5 mm 3 mps 579 mmHg 87%
    03:00 -6°C° 0.5 mm 3 mps 579 mmHg 87%
    04:00 -5°C° 0.2 mm 2 mps 579 mmHg 88%
    05:00 -5°C° 0.2 mm 2 mps 579 mmHg 88%
    06:00 -6°C° 0.2 mm 2 mps 579 mmHg 88%
    07:00 -5°C° 0.2 mm 2 mps 580 mmHg 87%
    08:00 -5°C° 0.2 mm 2 mps 580 mmHg 86%
    09:00 -5°C° 0.2 mm 2 mps 580 mmHg 85%
    10:00 -5°C° 0.1 mm 2 mps 581 mmHg 82%
    11:00 -4°C° 0.1 mm 2 mps 581 mmHg 79%
    12:00 -4°C° 0.1 mm 2 mps 582 mmHg 76%
    13:00 -4°C° 0.1 mm 2 mps 582 mmHg 77%
    14:00 -5°C° 0.1 mm 2 mps 582 mmHg 78%
    15:00 -5°C° 0.1 mm 2 mps 582 mmHg 79%
    16:00 -6°C° 0 mm 2 mps 582 mmHg 80%
    17:00 -8°C° 0 mm 2 mps 582 mmHg 81%
    18:00 -8°C° 0 mm 1 mps 582 mmHg 82%
    19:00 -8°C° 0 mm 1 mps 582 mmHg 79%
    20:00 -8°C° 0 mm 1 mps 582 mmHg 76%
    21:00 -8°C° 0 mm 1 mps 582 mmHg 72%
    22:00 -8°C° 0 mm 1 mps 582 mmHg 69%
    23:00 -8°C° 0 mm 1 mps 582 mmHg 67%

    14 December, Friday

    Time Temperature Precipitation Wind Pressure Humidity
    00:00 -8°C° 0 mm 1 mps 582 mmHg 64%
    01:00 -9°C° 0 mm 1 mps 582 mmHg 63%
    02:00 -9°C° 0 mm 1 mps 582 mmHg 62%
    03:00 -9°C° 0 mm 1 mps 582 mmHg 62%
    04:00 -9°C° 0 mm 1 mps 582 mmHg 63%
    05:00 -12°C° 0 mm 2 mps 582 mmHg 64%
    06:00 -12°C° 0 mm 2 mps 582 mmHg 66%
    07:00 -10°C° 0 mm 2 mps 583 mmHg 67%
    08:00 -10°C° 0 mm 2 mps 583 mmHg 67%
    09:00 -9°C° 0 mm 2 mps 584 mmHg 68%
    10:00 -8°C° 0 mm 2 mps 584 mmHg 68%
    11:00 -8°C° 0 mm 2 mps 584 mmHg 68%
    12:00 -7°C° 0 mm 2 mps 585 mmHg 68%
    13:00 -7°C° 0 mm 2 mps 585 mmHg 70%
    14:00 -7°C° 0 mm 2 mps 585 mmHg 71%
    15:00 -7°C° 0 mm 1 mps 585 mmHg 72%
    16:00 -8°C° 0 mm 1 mps 584 mmHg 75%
    17:00 -9°C° 0 mm 1 mps 584 mmHg 78%
    18:00 -11°C° 0 mm 1 mps 583 mmHg 81%
    19:00 -11°C° 0 mm 1 mps 583 mmHg 77%
    20:00 -13°C° 0 mm 2 mps 584 mmHg 72%
    21:00 -13°C° 0 mm 2 mps 584 mmHg 67%
    22:00 -13°C° 0 mm 2 mps 584 mmHg 64%
    23:00 -13°C° 0 mm 2 mps 583 mmHg 61%

    15 December, Saturday

    Time Temperature Precipitation Wind Pressure Humidity
    00:00 -13°C° 0 mm 2 mps 583 mmHg 58%
    01:00 -13°C° 0 mm 2 mps 583 mmHg 58%
    02:00 -13°C° 0 mm 2 mps 583 mmHg 57%
    03:00 -13°C° 0 mm 2 mps 584 mmHg 57%
    04:00 -13°C° 0 mm 2 mps 584 mmHg 56%
    05:00 -13°C° 0 mm 2 mps 584 mmHg 56%
    06:00 -13°C° 0 mm 2 mps 584 mmHg 55%
    07:00 -12°C° 0 mm 2 mps 584 mmHg 55%
    08:00 -10°C° 0 mm 2 mps 585 mmHg 54%
    09:00 -9°C° 0 mm 2 mps 586 mmHg 53%
    10:00 -8°C° 0 mm 2 mps 586 mmHg 51%
    11:00 -7°C° 0 mm 2 mps 586 mmHg 49%
    12:00 -3°C° 0 mm 1 mps 587 mmHg 47%
    13:00 -3°C° 0 mm 1 mps 587 mmHg 50%
    14:00 -4°C° 0 mm 1 mps 587 mmHg 52%
    15:00 -4°C° 0 mm 1 mps 587 mmHg 55%
    16:00 -6°C° 0 mm 1 mps 586 mmHg 55%
    17:00 -8°C° 0 mm 2 mps 586 mmHg 54%
    18:00 -9°C° 0 mm 2 mps 586 mmHg 53%
    19:00 -9°C° 0 mm 2 mps 586 mmHg 52%
    20:00 -9°C° 0 mm 2 mps 586 mmHg 50%
    21:00 -8°C° 0 mm 2 mps 586 mmHg 48%
    22:00 -8°C° 0 mm 2 mps 586 mmHg 48%
    23:00 -8°C° 0 mm 2 mps 586 mmHg 48%
    Show more